GW0773 Weather Reports


time (UTC)temp
F
wind
direction
speed
knots
gust
knots
rain 1hr
in
rain 24hr
in
rain mn
in
humidity
%
barometer
mb
20260505063043 53 93 4.3 7.8 0.00 0.00 0.00 65 1007.9
20260505061601 53 169 2.6 13.0 0.00 0.00 0.00 67 1008.2
20260505060044 53 139 8.7 11.3 0.00 0.00 0.00 64 1008.2
20260505054541 53 167 2.6 5.2 0.00 0.00 0.00 58 1008.5
20260505053035 53 182 2.6 4.3 0.00 0.00 0.00 58 1008.7
20260505051535 54 298 0.9 5.2 0.00 0.00 0.00 55 1008.6
20260505041535 55 118 2.6 5.2 0.00 0.00 0.00 50 1007.6
20260505040041 55 115 2.6 5.2 0.00 0.00 0.00 48 1007.4
20260505034541 56 0 0.0 3.5 0.00 0.00 0.00 47 1007.3
20260505033046 57 81 0.9 4.3 0.00 0.00 0.00 45 1007.2
20260505031535 58 72 5.2 13.0 0.00 0.00 0.00 43 1007.0
20260505030036 60 49 7.0 13.9 0.00 0.00 0.00 41 1006.7
20260505024552 60 11 9.6 16.5 0.00 0.00 0.00 41 1006.5
20260505023038 61 5 13.9 21.7 0.00 0.00 0.00 39 1006.4
20260505021549 64 33 5.2 12.2 0.00 0.00 0.00 35 1006.2
20260505020044 65 136 9.6 13.0 0.00 0.00 0.00 32 1005.4
20260505014538 67 188 3.5 9.6 0.00 0.00 0.00 31 1005.2
20260505013054 68 187 3.5 7.0 0.00 0.00 0.00 31 1005.1
20260505011547 69 184 3.5 8.7 0.00 0.00 0.00 30 1005.2
20260505010044 71 203 4.3 10.4 0.00 0.00 0.00 28 1005.2
20260505004544 73 215 5.2 9.6 0.00 0.00 0.00 23 1005.3
20260505003037 73 232 3.5 11.3 0.00 0.00 0.00 26 1005.5
20260505001537 73 261 4.3 11.3 0.00 0.00 0.00 23 1005.6
20260505000035 73 198 5.2 11.3 0.00 0.00 0.00 25 1005.7
20260504234542 68 243 3.5 20.9 0.00 0.00 0.00 28 1005.7
20260504233054 68 263 14.8 20.9 0.00 0.00 0.00 26 1005.5
20260504231539 73 283 7.8 13.0 0.00 0.00 0.00 26 1005.4
20260504230037 73 282 4.3 9.6 0.00 0.00 0.00 24 1005.4
20260504224535 74 308 7.0 12.2 0.00 0.00 0.00 23 1005.6
20260504223044 73 242 3.5 12.2 0.00 0.00 0.00 26 1005.7
20260504221536 71 257 7.0 13.9 0.00 0.00 0.00 27 1005.8
20260504220058 72 286 2.6 8.7 0.00 0.00 0.00 24 1006.0
20260504214539 73 256 4.3 11.3 0.00 0.00 0.00 24 1006.3
20260504213036 74 257 4.3 14.8 0.00 0.00 0.00 26 1006.8
20260504211535 68 283 7.8 13.9 0.00 0.00 0.00 30 1006.9
20260504210035 69 319 4.3 8.7 0.00 0.00 0.00 29 1007.2
20260504204556 71 355 3.5 8.7 0.00 0.00 0.00 25 1007.2
20260504203038 70 18 3.5 8.7 0.00 0.00 0.00 32 1007.3
20260504201537 71 342 4.3 14.8 0.00 0.00 0.00 26 1007.5
20260504200042 72 286 2.6 13.0 0.00 0.00 0.00 26 1007.4
20260504194540 73 319 7.0 13.0 0.00 0.00 0.00 26 1007.6
20260504193037 72 299 7.0 11.3 0.00 0.00 0.00 26 1008.0
20260504191547 71 264 5.2 11.3 0.00 0.00 0.00 28 1007.9
20260504190039 71 314 4.3 13.9 0.00 0.00 0.00 30 1008.2
20260504184537 71 250 6.1 12.2 0.00 0.00 0.00 29 1008.3
20260504183036 70 239 6.1 16.5 0.00 0.00 0.00 31 1008.8
20260504181543 70 242 5.2 12.2 0.00 0.00 0.00 32 1008.8
20260504180039 69 252 6.1 11.3 0.00 0.00 0.00 33 1009.0
20260504174538 68 250 7.0 14.8 0.00 0.00 0.00 31 1009.0
20260504173035 67 234 5.2 11.3 0.00 0.00 0.00 31 1009.1
20260504171535 66 284 2.6 7.8 0.00 0.00 0.00 36 1009.2
20260504081548 42 81 0.9 3.5 0.00 0.00 0.00 57 1010.1